Weather History for Louisville Bowman, KY

Change the Weather History Date:

Sunday, November 20, 2011

  Actual Average Record
Temperature  
Mean Temperature 59 °F 46 °F  
Max Temperature 65 °F 54 °F 74 °F (1979)
Min Temperature 53 °F 37 °F 16 °F (1951)
Degree Days  
Heating Degree Days 6 19  
Month to date heating degree days 250 310  
Since 1 July heating degree days 542 586  
Cooling Degree Days 0 0  
Month to date cooling degree days 3 0  
Year to date cooling degree days 1725 1442  
Growing Degree Days 8 (Base 50)    
Moisture  
Dew Point 58 °F    
Average Humidity 82    
Maximum Humidity 100    
Minimum Humidity 63    
Precipitation  
Precipitation 0.53 in 0.12 in 2.21 in (1982)
Month to date precipitation 3.23 2.37  
Year to date precipitation 60.47 40.29  
Sea Level Pressure  
Sea Level Pressure 30.15 in    
Wind  
Wind Speed 3 mph (South)    
Max Wind Speed 17 mph    
Max Gust Speed 25 mph    
Visibility 4 miles    
Events Rain    
T = Trace of Precipitation, MM = Missing Value Source: NWS Daily Summary

Daily Weather History Graph

Daily Weather History Graph

Search for Another Location

Airport:

Trip Planner

Search our weather history database for the weather conditions in past years. The results will help you decide how hot, cold, wet, or windy it might be!

Date:

Astronomy

Nov. 20, 2011 Rise Set
Actual Time 7:28 AM EST 5:27 PM EST
Civil Twilight 7:00 AM EST 5:55 PM EST
Nautical Twilight 6:28 AM EST 6:27 PM EST
Astronomical Twilight 5:56 AM EST 6:59 PM EST
Moon 2:00 AM EST (11/20) 2:12 PM EST (11/20)
Length of Visible Light 10h 55m
Length of Day
9h 58m
Waning Crescent, 27% of the Moon is Illuminated
Nov 20
Waning Crescent
Nov 25
New
Dec 2
First Quarter
Dec 10
Full
Dec 17
Last Quarter

Hourly Weather History & Observations

Time (EST) Temp. Dew Point Humidity Pressure Visibility Wind Dir Wind Speed Gust Speed Precip Events Conditions
12:53 AM 64.0 °F 51.1 °F 63% 30.09 in 10.0 mi South 11.5 mph 20.7 mph N/A   Overcast
1:53 AM 63.0 °F 53.1 °F 70% 30.10 in 10.0 mi SW 8.1 mph 16.1 mph 0.00 in Rain Light Rain
2:53 AM 62.1 °F 53.1 °F 72% 30.12 in 10.0 mi SSW 4.6 mph - 0.01 in Rain Light Rain
3:48 AM 59.0 °F 55.4 °F 88% 30.13 in 2.5 mi SW 5.8 mph - N/A Rain Rain
3:53 AM 59.0 °F 55.0 °F 87% 30.12 in 4.0 mi SSW 8.1 mph - 0.09 in Rain Rain
4:53 AM 57.9 °F 55.9 °F 93% 30.11 in 10.0 mi Calm Calm - 0.00 in   Overcast
5:53 AM 57.9 °F 55.9 °F 93% 30.12 in 10.0 mi SSE 3.5 mph - N/A   Overcast
6:53 AM 57.9 °F 55.9 °F 93% 30.14 in 9.0 mi Calm Calm - N/A   Overcast
7:53 AM 59.0 °F 55.9 °F 90% 30.16 in 10.0 mi SSE 3.5 mph - N/A   Overcast
8:37 AM 59.0 °F 55.4 °F 88% 30.17 in 10.0 mi South 6.9 mph - N/A   Overcast
8:53 AM 60.8 °F 57.2 °F 88% 30.18 in 8.0 mi South 5.8 mph - N/A Rain Light Rain
9:53 AM 60.1 °F 57.9 °F 93% 30.18 in 8.0 mi South 3.5 mph - 0.00 in   Overcast
10:53 AM 60.8 °F 57.2 °F 88% 30.18 in 8.0 mi South 5.8 mph - N/A   Overcast
11:41 AM 60.8 °F 57.2 °F 88% 30.18 in 1.8 mi South 3.5 mph - 0.01 in Rain Light Rain
11:48 AM 60.8 °F 57.2 °F 88% 30.18 in 1.5 mi Calm Calm - 0.02 in Rain Light Rain
11:53 AM 60.1 °F 59.0 °F 96% 30.17 in 1.5 mi South 3.5 mph - 0.03 in Rain Light Rain
12:19 PM 60.8 °F 59.0 °F 94% 30.17 in 2.0 mi Calm Calm - 0.05 in Rain Light Rain
12:22 PM 60.8 °F 59.0 °F 94% 30.17 in 1.5 mi South 4.6 mph - 0.05 in Rain Light Rain
12:53 PM 60.1 °F 59.0 °F 96% 30.15 in 1.5 mi SSE 4.6 mph - 0.07 in Rain Light Rain
1:19 PM 60.8 °F 59.0 °F 94% 30.15 in 1.5 mi South 3.5 mph - 0.00 in Rain Light Rain
1:31 PM 60.8 °F 59.0 °F 94% 30.14 in 2.0 mi South 4.6 mph - 0.00 in Rain Light Rain
1:33 PM 60.8 °F 59.0 °F 94% 30.14 in 5.0 mi South 3.5 mph - 0.00 in Rain Light Rain
1:46 PM 60.8 °F 59.0 °F 94% 30.14 in 5.0 mi South 4.6 mph - 0.01 in Rain Light Rain
1:53 PM 60.1 °F 59.0 °F 96% 30.14 in 3.0 mi South 3.5 mph - 0.02 in Rain Light Rain
2:00 PM 60.8 °F 59.0 °F 94% 30.14 in 3.0 mi South 4.6 mph - 0.01 in Rain Light Rain
2:53 PM 61.0 °F 59.0 °F 93% 30.12 in 3.0 mi South 3.5 mph - 0.01 in   Overcast
3:00 PM 60.8 °F 59.0 °F 94% 30.12 in 2.5 mi SSE 3.5 mph - N/A   Overcast
3:20 PM 60.8 °F 59.0 °F 94% 30.13 in 2.5 mi South 3.5 mph - N/A   Overcast
3:40 PM 60.8 °F 59.0 °F 94% 30.13 in 2.0 mi South 3.5 mph - 0.01 in   Overcast
3:53 PM 60.1 °F 59.0 °F 96% 30.13 in 1.5 mi Calm Calm - 0.01 in Rain Light Rain
4:03 PM 60.8 °F 59.0 °F 94% 30.13 in 1.0 mi Calm Calm - 0.01 in Rain Light Rain
4:31 PM 60.8 °F 59.0 °F 94% 30.13 in 1.0 mi Calm Calm - 0.03 in Rain Light Rain
4:53 PM 60.1 °F 59.0 °F 96% 30.14 in 1.0 mi Calm Calm - 0.05 in Rain Light Rain
5:35 PM 60.8 °F 59.0 °F 94% 30.15 in 1.0 mi Calm Calm - 0.12 in Rain Light Rain
5:46 PM 60.8 °F 60.8 °F 100% 30.14 in 1.0 mi Calm Calm - 0.14 in Rain Rain
5:53 PM 60.1 °F 60.1 °F 100% 30.14 in 1.0 mi Calm Calm - 0.15 in Rain Rain
6:00 PM 60.8 °F 60.8 °F 100% 30.14 in 2.5 mi Calm Calm - 0.01 in Rain Light Rain
6:07 PM 60.8 °F 59.0 °F 94% 30.15 in 3.0 mi Calm Calm - 0.01 in Rain Light Rain
6:53 PM 60.8 °F 59.0 °F 94% 30.15 in 3.0 mi Calm Calm - N/A   Overcast
7:13 PM 60.8 °F 59.0 °F 94% 30.16 in 3.0 mi Calm Calm - 0.03 in Rain Rain
7:38 PM 60.8 °F 59.0 °F 94% 30.17 in 3.0 mi Calm Calm - 0.06 in Rain Rain
7:53 PM 60.1 °F 59.0 °F 96% 30.17 in 3.0 mi Calm Calm - 0.07 in Rain Light Rain
8:00 PM 60.8 °F 59.0 °F 94% 30.17 in 2.5 mi Calm Calm - 0.00 in Rain Light Rain
8:08 PM 60.8 °F 59.0 °F 94% 30.16 in 2.5 mi Calm Calm - 0.01 in Rain Light Rain
8:18 PM 60.8 °F 59.0 °F 94% 30.16 in 2.0 mi Calm Calm - 0.01 in Rain Light Rain
8:26 PM 60.8 °F 59.0 °F 94% 30.16 in 1.8 mi Calm Calm - N/A Rain Light Rain
8:53 PM 60.1 °F 59.0 °F 96% 30.17 in 2.5 mi Calm Calm - 0.01 in   Overcast
9:08 PM 60.8 °F 59.0 °F 94% 30.17 in 2.5 mi Calm Calm - N/A   Overcast
9:20 PM 60.8 °F 59.0 °F 94% 30.17 in 3.0 mi Calm Calm - N/A   Overcast
9:28 PM 60.8 °F 59.0 °F 94% 30.17 in 2.5 mi Calm Calm - N/A   Overcast
9:38 PM 60.8 °F 59.0 °F 94% 30.18 in 1.2 mi NNW 6.9 mph - N/A   Overcast
9:44 PM 59.0 °F 59.0 °F 100% 30.18 in 2.0 mi NNW 6.9 mph - N/A   Overcast
9:51 PM 57.2 °F 55.4 °F 94% 30.17 in 5.0 mi NNW 6.9 mph - N/A   Overcast
9:53 PM 55.9 °F 55.0 °F 97% 30.17 in 5.0 mi NNW 5.8 mph - N/A   Overcast
10:53 PM 53.1 °F 52.0 °F 96% 30.18 in 5.0 mi North 8.1 mph - N/A   Overcast
11:53 PM 53.1 °F 52.0 °F 96% 30.18 in 2.5 mi North 8.1 mph - N/A   Overcast